#timestamp,LO_Frequency,Hit 
1501016415.2,286047266.4,N
1501016435.0,286047265.6,N
1501016436.0,286047265.6,N
1501016455.8,286047261.7,N
1501016475.6,286047264.3,N
1501016495.4,286047263.4,N
1501016515.3,286047264.1,N
1501016535.1,286047267.2,N
1501016555.8,286047274.5,N
1501016575.7,286047277.3,N
1501016595.5,286047275.7,N
1501016615.3,286047269.4,N
1501016635.2,286047263.4,N
1501016655.9,286047257.5,N
1501016675.7,286047263.5,N
1501016695.5,286047269.0,N
1501016715.4,286047271.7,N
1501016735.2,286047277.8,N
1501016755.0,286047277.5,N
1501016755.9,286047277.5,N
1501016775.8,286047277.3,N
1501016795.6,286047279.2,N
1501016815.4,286047272.7,N
1501016835.3,286047265.3,N
1501016855.1,286047269.6,N
1501016856.0,286047269.6,N
1501016875.8,286047270.7,N
1501016895.7,286047273.0,N
1501016915.5,286047272.7,N
1501016935.3,286047274.0,N
1501016955.1,286047270.4,N
1501016975.9,286047265.4,N
1501016995.7,286047263.9,N
1501017015.5,286047265.5,N
1501017035.4,286047264.8,N
1501017055.2,286047263.9,N
1501017075.0,286047264.6,N
1501017075.9,286047264.6,N
1501017095.8,286047263.1,N
1501017115.6,286047265.0,N
1501017135.4,286047265.2,N
1501017155.3,286047261.6,N
1501017175.1,286047251.2,N
1501017176.0,286047251.2,N
1501017195.8,286047251.9,N
1501017215.7,286047250.3,N
1501017235.5,286047247.4,N
1501017255.3,286047254.8,N
1501017275.1,286047263.1,N
1501017295.9,286047264.1,N
1501017315.7,286047272.2,N
1501017335.5,286047273.6,N
1501017355.4,286047275.0,N
1501017375.2,286047271.9,N
1501017395.0,286047271.0,N
1501017395.9,286047271.0,N
1501017415.8,286047271.5,N
1501017435.6,286047268.2,N
1501017455.4,286047260.9,N
1501017475.3,286047256.5,N
1501017495.1,286047251.5,N
1501017496.0,286047251.5,N
1501017515.8,286047249.7,N
1501017535.7,286047250.1,N
1501017555.5,286047249.6,N
1501017575.3,286047259.0,N
1501017595.1,286047265.0,N
1501017615.9,286047268.7,N
1501017635.7,286047269.4,N
1501017655.5,286047268.1,N
1501017675.4,286047272.5,N
1501017695.2,286047276.7,N
1501017715.0,286047278.9,N
1501017715.9,286047278.9,N
1501017735.8,286047275.0,N
1501017755.6,286047275.3,N
1501017775.4,286047280.5,N
1501017795.3,286047282.2,N
1501017815.1,286047279.7,N
1501017816.0,286047279.7,N
1501017835.8,286047282.7,N
1501017855.6,286047284.8,N
1501017875.5,286047286.1,N
1501017895.3,286047284.4,N
1501017915.1,286047287.8,N
1501017935.9,286047296.6,N
1501017955.7,286047294.1,N
1501017975.5,286047291.7,N
1501017995.4,286047294.0,N
1501018015.2,286047291.9,N
1501018035.0,286047288.5,N
1501018035.9,286047288.5,N
1501018055.8,286047285.4,N
1501018075.6,286047283.6,N
1501018095.4,286047277.5,N
1501018115.2,286047268.5,N
1501018135.1,286047265.6,N
1501018136.0,286047265.6,N
1501018155.8,286047264.2,N
1501018175.6,286047267.2,N
1501018195.5,286047272.3,N
1501018215.3,286047276.3,N
1501018235.1,286047272.5,N
1501018255.9,286047270.5,N
1501018275.7,286047268.4,N
1501018295.5,286047261.0,N
1501018315.4,286047258.2,N
1501018335.2,286047258.2,N
1501018355.0,286047257.2,N
1501018355.9,286047257.2,N
1501018375.7,286047253.5,N
1501018395.6,286047254.8,N
1501018415.4,286047259.3,N
1501018435.2,286047259.3,N
1501018455.1,286047255.2,N
1501018456.0,286047255.2,N
1501018475.8,286047249.5,N
1501018495.6,286047251.6,N
1501018515.5,286047262.7,N
1501018535.3,286047267.8,N
1501018555.1,286047263.8,N
1501018575.9,286047264.3,N
1501018595.7,286047265.0,N
1501018615.5,286047259.5,N
1501018635.3,286047253.1,N
1501018655.2,286047251.4,N
1501018675.0,286047253.7,N
1501018675.9,286047253.7,N
1501018695.7,286047255.8,N
1501018715.6,286047261.4,N
1501018735.4,286047262.1,N
1501018755.2,286047257.8,N
1501018775.1,286047254.9,N
1501018776.0,286047254.9,N
1501018795.8,286047261.8,N
1501018815.6,286047260.1,N
1501018835.5,286047258.0,N
1501018855.3,286047259.9,N
1501018875.1,286047263.1,N
1501018895.8,286047271.4,N
1501018915.7,286047275.9,N
1501018935.5,286047279.0,N
1501018955.3,286047272.6,N
1501018975.2,286047271.2,N
1501018995.9,286047268.1,N
1501019015.7,286047262.2,N
1501019035.6,286047260.8,N
1501019055.4,286047255.8,N
1501019075.2,286047253.1,N
1501019095.1,286047250.6,N
1501019096.0,286047250.6,N
1501019115.8,286047245.2,N
1501019135.6,286047243.7,N
1501019155.4,286047242.5,N
1501019175.3,286047243.9,N
1501019195.1,286047249.3,N
1501019215.8,286047258.0,N
1501019235.7,286047262.7,N
1501019255.5,286047261.2,N
1501019275.3,286047258.6,N
1501019295.2,286047261.8,N
1501019315.9,286047260.0,N
1501019335.7,286047259.8,N
1501019355.5,286047255.3,N
1501019375.4,286047255.3,N
1501019395.2,286047263.5,N
1501019415.0,286047264.2,N
1501019415.9,286047264.2,N
1501019435.8,286047259.4,N
1501019455.6,286047258.4,N
1501019475.4,286047256.9,N
1501019495.3,286047258.7,N
1501019515.1,286047253.8,N
1501019516.0,286047253.8,N
1501019535.8,286047247.9,N
1501019555.7,286047250.6,N
1501019575.5,286047243.5,N
1501019595.3,286047239.8,N
1501019615.2,286047237.0,N
1501019635.9,286047235.9,N
1501019655.7,286047233.9,N
1501019675.5,286047234.7,N
1501019695.4,286047232.8,N
1501019715.2,286047232.8,N
1501019735.0,286047233.6,N
1501019735.9,286047233.6,N
1501019755.8,286047234.5,N
1501019775.6,286047234.4,N
1501019795.4,286047234.3,N
1501019815.3,286047232.9,N
1501019835.1,286047235.4,N
1501019836.0,286047235.4,N
1501019855.8,286047234.1,N
1501019875.7,286047234.8,N
1501019895.5,286047238.5,N
1501019915.3,286047243.6,N
1501019935.1,286047248.7,N
1501019955.9,286047253.1,N
1501019975.7,286047255.6,N
1501019995.5,286047251.5,N
